Regional Weather Roundup
Issued by NWS Little Rock, AR

Home | Current Version | Previous Version | Graphics & Text | Print | Product List | Glossary On
Versions: 1 2 3 4 5 6 7 8 9 10 11 12 13 14 15 16 17 18 19 20 21 22 23 24 25 26 27 28 29 30 31 32 33 34 35 36 37 38 39 40 41 42 43 44 45 46 47 48 49 50
000
ASUS44 KLZK 230505
RWRLZK

WEATHER ROUNDUP FOR ARKANSAS
NATIONAL WEATHER SERVICE LITTLE ROCK AR
1100 PM CST MON JAN 22 2018

NOTE: "FAIR" INDICATES FEW OR NO CLOUDS BELOW 12,000 FEET WITH NO
SIGNIFICANT WEATHER AND/OR OBSTRUCTIONS TO VISIBILITY.

ARZ001-003-010-029-230600-
NORTHWEST ARKANSAS

CITY           SKY/WX    TMP DP  RH WIND       PRES   REMARKS
FAYETTEVILLE   CLOUDY    40  28  62 NW13G23   29.92R
FORT SMITH     PTCLDY    42  28  57 W12       29.96R
HARRISON       CLOUDY    38  26  62 NW23G38   29.83R
BENTONVILLE    CLOUDY    38  27  64 NW18G31   29.93R
ROGERS         CLOUDY    37  26  64 W20G36    29.90R
SILOAM SPGS    CLOUDY    39  28  64 NW16      29.93R
HIGHFILL       FLURRIES  38  28  67 NW18G28   29.91R
$$

ARZ004-005-016-230600-
NORTH CENTRAL ARKANSAS

CITY           SKY/WX    TMP DP  RH WIND       PRES   REMARKS
BATESVILLE     CLOUDY    46  26  45 W16G26    29.83S
FLIPPIN        CLOUDY    41  27  57 W20G25    29.85R
MTN HOME       CLOUDY    40  27  59 NW15G29   29.82R
$$

ARZ040-041-230600-
WEST CENTRAL ARKANSAS

CITY           SKY/WX    TMP DP  RH WIND       PRES   REMARKS
MENA           CLEAR     46  27  46 W10G24    29.96S
$$

ARZ009-017-025-026-028-230600-
NORTHEAST ARKANSAS

CITY           SKY/WX    TMP DP  RH WIND       PRES   REMARKS
JONESBORO      CLOUDY    47  32  56 W10       29.82R
NEWPORT        FAIR      46  30  53 W14       29.84R
WALNUT RIDGE   CLOUDY    46  27  47 W14       29.81R
BLYTHEVILLE    CLOUDY    47  35  63 SW14G22   29.82R
$$

ARZ022-023-033-042-044-230600-
CENTRAL ARKANSAS

CITY           SKY/WX    TMP DP  RH WIND       PRES   REMARKS
LITTLE ROCK    CLEAR     45  28  51 W10       29.92R
N LITTLE ROCK    N/A     44  29  55 W8G17     29.84S
JACKSONVILLE   PTCLDY    45  29  52 W15       29.89S
SEARCY         CLOUDY    47  29  49 W10G21    29.87
HOT SPRINGS    CLEAR     47  26  44 W13G20    29.94R
RUSSELLVILLE   CLOUDY    46  27  47 W21G37    29.89R
CLINTON        CLOUDY    46  27  46 W15G28    29.86R
$$

ARZ036-230600-
EAST ARKANSAS

CITY           SKY/WX    TMP DP  RH WIND       PRES   REMARKS
WEST MEMPHIS   CLOUDY    47  32  56 W10G17    29.87S
$$

ARZ050-053-066-070-073-230600-
SOUTHWEST ARKANSAS

CITY           SKY/WX    TMP DP  RH WIND       PRES   REMARKS
ARKADELPHIA    FAIR      43  30  60 SW8       29.99R
CAMDEN         FAIR      46  27  46 SW8       30.01S
TEXARKANA      CLEAR     44  28  53 SW9       30.04R
EL DORADO      FAIR      47  30  51 W9        30.04R
DE QUEEN       CLEAR     43  28  55 W9        30.01R
$$

ARZ056-057-069-230600-
SOUTHEAST ARKANSAS

CITY           SKY/WX    TMP DP  RH WIND       PRES   REMARKS
PINE BLUFF     FAIR      45  29  53 SW10      29.96R
STUTTGART      FAIR      45  32  60 SW13      29.92F
MONTICELLO     FAIR      47  28  47 W14       29.98R

$$





USA.gov is the U.S. government's official web portal to all federal, state and local government web resources and services.